RH
49 49 47 43 37 39 46 49 51 54 59 65 66 57 43 45 53 56 61 56 54 62 63 64 65 65 69 69 66 63 58 57 61 62 63 61 52 46 30 30 59 64 53 56 53 40 28 22 25 29 32 30 23 17 14 13 13 12 10 8 7 6 4 5 8 9 9 8 8 8 9 10 11 12 13 15 16 18 19 20 22 23 23 21 20
49 51 50 47 40 36 41 48 52 52 57 63 66 60 48 52 57 55 58 51 49 62 66 64 65 70 72 69 68 63 57 58 60 60 64 63 58 58 40 28 56 69 52 48 46 37 30 27 30 32 34 34 26 17 14 13 13 11 9 8 6 5 6 10 13 13 13 12 12 13 13 15 16 17 18 19 20 21 23 24 25 26 26 25 24
49 51 53 51 44 37 36 44 52 54 57 62 64 58 53 60 60 56 60 49 44 58 67 64 63 72 75 69 65 62 58 58 59 60 64 64 62 64 48 25 47 71 61 48 41 36 34 32 34 36 38 37 30 19 13 13 12 10 8 8 6 4 9 15 17 16 15 16 16 17 18 19 20 21 21 22 23 25 26 26 27 27 28 28 27
47 49 52 52 48 42 37 39 48 55 57 59 61 58 59 67 64 60 63 53 43 51 63 66 67 74 78 71 65 63 61 57 58 59 61 64 63 66 55 29 33 59 68 62 50 40 36 37 38 39 40 41 35 21 14 13 11 10 9 8 6 6 13 18 18 18 18 18 19 19 20 21 21 22 23 23 25 26 27 28 28 28 28 28 28
39 46 50 50 49 47 42 38 42 53 57 56 56 58 65 74 70 63 64 62 48 47 60 62 63 73 80 78 67 61 61 57 57 57 55 59 63 66 63 45 31 37 53 65 66 56 44 39 39 41 42 42 38 24 14 13 12 11 10 8 6 9 17 20 19 19 19 19 20 20 21 22 22 22 23 23 24 25 26 27 28 28 29 29 29
29 39 46 48 48 47 46 43 39 47 55 54 48 52 67 79 75 61 62 68 51 45 58 58 57 68 76 76 61 55 63 57 55 56 51 56 63 65 66 59 46 37 35 46 64 68 58 48 41 41 44 44 40 28 15 13 13 13 12 9 8 13 19 21 20 19 20 21 21 21 21 22 22 22 23 24 24 25 25 26 27 28 28 29 29
23 31 37 42 47 44 45 47 44 42 47 53 47 45 60 74 75 60 56 70 64 55 60 57 56 62 64 63 52 52 62 55 52 55 50 54 61 63 66 62 57 53 40 32 47 61 60 56 49 41 43 46 43 33 19 13 14 15 15 13 12 16 20 21 21 20 20 21 21 22 22 22 23 23 23 24 24 25 25 26 26 27 27 28 29
21 26 29 34 42 44 42 44 47 43 41 49 50 48 52 62 69 57 48 68 77 72 70 61 55 57 54 49 46 47 54 54 50 52 51 52 55 58 64 63 58 58 50 35 36 50 56 54 55 48 42 44 46 40 27 16 14 16 18 18 18 19 22 22 21 21 20 21 21 21 21 22 22 23 24 24 25 25 25 25 25 26 27 28 30
21 23 27 29 35 44 45 42 44 44 41 44 50 57 56 56 62 53 43 57 74 81 81 67 53 53 49 42 45 48 50 53 47 46 51 52 50 53 58 61 60 57 56 44 31 38 51 53 56 56 47 43 45 45 38 25 15 15 18 21 22 22 23 23 22 21 21 20 21 21 21 22 22 24 24 24 25 25 25 24 24 25 26 29 30
22 22 26 30 31 40 48 47 46 45 42 43 48 61 64 56 54 49 39 46 67 82 85 73 61 59 56 47 45 47 49 50 45 42 49 50 46 49 52 54 58 60 59 53 37 25 33 45 52 58 56 48 45 45 44 38 23 15 16 18 21 23 22 23 22 21 21 21 21 21 21 22 23 24 25 25 25 24 24 24 24 25 27 30 31
24 22 22 27 29 33 41 47 51 48 43 45 46 55 65 59 51 45 37 42 57 74 86 82 75 73 75 67 50 44 46 47 42 38 43 46 42 44 48 47 50 61 62 57 50 31 18 26 36 49 60 57 52 47 43 45 37 22 17 17 17 19 20 21 22 21 21 21 21 21 22 22 23 24 25 25 24 24 24 24 24 25 28 30 33
42 40 31 27 28 29 33 39 47 49 42 44 47 50 61 63 57 47 37 40 49 68 89 85 76 82 85 76 56 45 46 43 39 36 39 42 40 37 40 41 43 57 65 59 57 45 21 15 20 32 51 62 61 52 42 44 45 33 22 19 16 17 19 19 21 22 21 22 21 21 22 22 23 24 25 25 24 24 24 24 25 26 29 32 34
59 60 52 38 29 27 29 30 37 47 43 42 48 51 56 62 62 52 39 39 46 63 82 72 63 73 77 69 56 47 46 41 37 36 38 39 38 35 33 37 39 48 62 63 61 53 32 17 15 18 36 58 65 57 47 44 46 42 31 24 20 17 19 19 20 22 21 21 21 22 22 23 24 24 25 25 25 24 24 25 26 28 31 33 34
60 61 62 49 33 26 25 24 26 39 46 45 50 51 51 55 57 53 43 41 44 52 67 67 55 56 68 73 62 51 45 39 35 37 39 39 38 36 34 36 37 40 52 60 60 56 45 29 17 14 24 48 64 61 55 49 47 47 40 33 27 23 22 21 21 21 21 22 23 23 24 24 25 24 25 25 25 24 25 26 28 30 32 33 32
60 54 58 56 46 36 28 23 18 25 39 43 48 50 49 49 47 46 45 45 47 46 53 62 58 56 69 76 69 61 51 41 38 38 43 46 40 37 40 40 37 35 41 51 54 55 57 43 22 15 18 36 60 65 59 52 48 49 45 40 36 33 34 35 34 32 31 32 31 29 28 28 27 26 26 26 25 25 26 27 28 30 31 31 30
66 54 53 55 55 51 42 33 21 15 23 29 35 43 47 49 44 40 40 43 48 49 46 49 54 60 68 70 68 61 50 47 48 44 46 49 43 40 43 43 39 34 33 41 47 52 58 50 33 20 14 24 49 64 63 54 51 52 49 45 43 43 46 50 51 49 47 45 43 39 36 33 30 28 28 27 27 26 26 27 28 29 28 27 28
75 65 58 55 54 57 56 49 40 27 20 19 23 31 40 45 44 39 35 35 41 47 48 46 49 59 66 68 67 61 57 57 53 46 46 47 44 40 37 38 39 35 33 35 41 49 52 50 45 30 16 16 31 52 65 61 56 55 53 51 50 50 53 56 57 57 55 52 50 45 39 34 30 30 30 29 28 26 26 27 26 26 25 24 26
78 74 69 62 50 51 54 50 49 46 38 32 26 23 27 33 36 36 34 32 34 40 46 47 47 57 63 62 61 64 67 63 51 44 45 46 46 41 34 36 40 39 37 36 37 43 47 49 48 35 22 17 17 30 53 64 63 58 55 55 54 54 55 56 57 58 57 54 49 41 34 31 30 29 30 29 27 25 25 25 24 24 24 24 26
78 76 73 67 52 46 48 41 40 48 52 53 44 27 20 23 27 30 31 31 32 34 42 46 43 48 58 60 60 60 56 51 48 47 46 46 48 44 36 35 40 39 37 36 36 39 42 45 47 41 30 21 16 17 30 50 63 61 58 58 57 55 55 54 55 54 54 51 43 31 25 26 26 26 27 26 25 23 23 23 24 24 24 25 26
77 75 71 67 55 47 45 37 32 37 47 58 58 41 23 18 22 26 28 29 30 30 38 46 40 38 46 51 53 51 42 38 42 47 49 48 46 41 35 33 35 36 33 34 36 38 40 42 45 48 40 25 17 18 18 27 46 58 60 59 57 56 53 51 49 46 44 41 33 23 19 21 21 22 22 21 21 21 22 23 23 24 25 25 26
79 76 73 69 62 53 47 39 36 38 44 54 60 53 35 20 20 24 25 25 26 28 34 41 37 36 40 37 34 34 31 30 35 42 47 47 44 37 32 32 33 34 35 35 37 40 41 40 41 45 45 34 21 18 18 20 28 42 53 56 55 52 49 47 44 37 32 28 24 19 17 18 18 19 18 18 19 20 21 23 24 25 25 25 26
80 76 73 72 68 63 55 49 47 47 50 53 58 60 47 28 20 21 23 22 23 24 28 33 33 34 38 35 30 28 27 27 29 36 42 42 40 34 30 32 33 33 36 36 40 47 47 42 38 40 43 41 30 19 16 19 20 26 37 46 47 45 44 43 39 31 23 19 19 18 18 16 17 18 17 18 19 20 21 22 24 25 25 26 27
76 72 70 69 68 65 61 57 56 53 54 55 56 56 48 33 22 18 20 20 20 21 23 28 29 29 32 32 30 28 27 27 26 29 35 37 38 35 32 32 33 33 35 36 41 51 55 46 37 37 41 39 32 23 15 16 18 19 24 32 37 38 38 35 31 24 18 16 16 18 18 16 16 17 17 18 19 20 21 22 23 24 25 27 28
71 70 71 70 66 66 63 60 58 57 58 57 54 51 42 32 26 19 18 19 19 19 20 22 25 24 25 28 29 27 26 26 25 25 28 33 36 37 35 34 33 33 33 34 37 44 53 52 41 37 39 35 29 25 18 15 16 17 17 21 27 31 32 28 22 19 16 14 15 16 17 16 16 17 17 18 19 19 20 21 22 24 25 27 28
68 67 68 68 66 65 64 62 61 59 59 57 56 53 40 32 35 29 21 21 20 19 18 19 20 20 20 24 26 26 25 25 25 25 25 30 34 34 35 33 32 33 32 32 34 36 42 48 45 38 35 33 30 27 21 16 16 16 16 16 18 23 24 21 18 17 16 15 15 16 16 16 16 17 17 18 19 20 20 22 24 25 26 28 28
65 63 61 61 62 62 62 62 61 59 58 57 58 58 44 35 42 39 28 26 24 21 22 20 18 17 17 20 22 23 24 24 25 25 25 29 32 33 37 35 31 31 31 31 33 33 34 38 41 39 33 31 31 28 22 18 17 16 17 16 15 16 17 17 17 17 17 16 16 17 18 18 19 19 20 21 21 22 23 24 25 26 27 28 29
61 60 59 57 57 58 58 59 59 58 59 57 57 58 50 44 47 45 39 37 32 29 32 31 26 20 14 14 18 21 23 23 24 25 26 29 31 32 36 36 32 31 30 30 31 31 32 32 34 37 33 28 31 30 22 19 18 18 19 19 17 17 17 17 18 20 20 20 20 21 22 23 25 25 25 26 26 26 27 28 28 29 29 30 31
61 59 58 56 54 55 55 57 58 58 58 56 54 56 57 55 54 51 48 46 43 40 39 39 38 31 20 14 14 17 20 20 22 25 27 29 29 29 30 31 32 31 30 30 29 29 32 31 31 36 34 30 32 31 23 19 19 20 21 21 21 21 21 21 22 23 24 24 25 27 28 29 30 30 31 31 31 32 32 33 34 34 34 34 35
64 62 59 56 54 53 53 55 56 56 55 54 54 55 57 57 54 50 48 46 44 42 39 38 40 38 30 20 14 14 17 18 19 22 25 27 26 25 25 27 29 31 30 29 28 28 31 30 29 33 36 35 36 34 27 21 20 21 23 23 24 24 24 25 25 26 26 27 28 29 31 32 33 33 34 34 35 35 36 37 38 38 38 38 38
62 61 59 56 54 52 52 52 53 53 52 52 53 55 56 56 52 48 49 49 46 44 42 39 38 38 36 29 19 14 15 16 17 19 21 23 23 23 22 23 26 28 28 27 27 27 28 29 28 29 35 39 39 36 31 24 20 21 22 24 25 26 27 27 27 27 27 27 29 29 30 31 31 32 33 33 34 35 36 37 38 39 40 40 40
59 58 58 57 55 52 51 51 51 51 51 51 51 53 55 53 50 48 50 50 47 46 48 46 41 38 36 33 24 16 15 16 17 19 20 20 20 20 20 20 22 24 26 25 26 26 27 28 28 28 31 38 40 36 32 27 23 20 21 23 24 25 26 27 27 27 27 27 27 27 27 27 27 28 29 30 30 32 33 35 36 38 39 40 41
58 57 56 56 56 54 52 52 52 51 52 51 50 52 54 52 50 51 51 48 46 47 50 52 51 46 40 35 28 20 17 18 18 19 19 19 20 19 18 18 19 21 23 23 24 25 26 26 28 28 28 32 37 38 35 30 24 21 20 21 22 24 24 25 25 25 25 25 24 24 24 24 24 24 25 25 26 27 28 29 32 34 36 38 39
59 57 55 55 55 56 55 54 54 54 54 55 54 54 54 52 51 52 49 44 42 44 48 52 55 55 50 42 33 25 21 20 19 19 20 19 19 19 17 17 17 17 19 20 22 24 26 26 27 28 28 28 33 38 40 36 29 24 22 20 20 22 23 23 24 24 23 23 23 23 23 22 22 22 22 23 23 24 24 24 26 28 30 32 34
54 56 55 54 54 56 56 55 55 56 56 58 57 56 55 51 46 46 46 41 37 39 43 47 52 58 58 52 43 34 29 25 22 20 21 21 20 19 17 16 16 15 15 17 19 21 24 25 26 27 27 27 28 33 39 43 42 33 26 23 20 19 21 21 22 22 22 22 23 23 22 22 21 21 21 21 21 22 23 23 24 24 25 26 27
40 47 52 53 53 54 56 56 56 55 54 56 57 56 56 51 44 41 42 39 37 37 37 39 46 53 57 56 50 46 42 38 34 28 24 24 24 21 19 16 16 16 15 15 16 19 21 23 25 25 27 27 27 28 32 40 47 41 32 29 24 20 19 20 20 21 20 21 21 21 21 20 20 20 20 21 20 20 21 22 23 23 23 24 24
30 34 40 47 52 53 54 56 56 55 53 52 53 56 57 54 49 45 43 41 39 35 28 28 37 42 49 54 54 53 53 49 46 43 37 32 29 25 21 18 17 17 18 17 15 16 18 21 23 25 25 26 27 27 27 32 40 43 39 35 29 25 23 20 19 20 20 20 20 20 20 19 19 19 19 19 19 19 19 20 22 23 23 23 24
27 28 31 37 46 51 52 53 54 54 53 50 48 50 53 55 53 49 48 47 49 46 31 26 35 38 38 45 49 50 54 55 53 52 49 44 39 33 27 22 19 19 19 20 18 16 16 18 20 23 25 25 26 27 27 27 31 37 41 39 36 34 30 24 20 20 19 18 19 18 18 18 18 18 19 19 19 19 19 20 20 21 22 23 24
27 25 25 28 37 46 48 48 47 47 50 52 50 47 46 49 52 52 53 52 54 56 43 33 43 45 35 34 38 41 46 53 57 54 51 50 49 46 38 29 23 21 21 22 22 19 16 16 17 20 22 25 26 26 27 27 27 29 33 37 39 38 33 27 25 25 22 18 17 17 17 17 17 18 19 20 21 22 22 23 24 24 24 25 26
28 26 24 21 27 38 43 42 40 38 40 44 48 47 42 38 39 46 56 57 55 57 52 44 49 51 42 35 32 31 36 45 53 53 47 44 46 50 52 45 35 27 23 23 24 24 21 17 15 17 19 22 25 25 26 27 27 26 27 30 34 35 35 32 31 33 31 25 21 19 18 20 21 22 24 25 27 27 27 28 29 30 30 30 31
28 27 25 21 20 29 37 38 35 31 31 31 32 36 36 29 24 29 42 52 54 56 55 52 50 49 51 48 31 20 26 35 44 47 42 39 37 39 48 56 54 44 33 26 24 26 27 24 17 15 17 19 22 24 26 27 25 24 24 26 28 30 33 34 36 38 37 33 29 26 24 25 27 28 30 31 31 31 31 32 33 34 35 35 36
28 27 27 24 20 22 28 33 32 28 27 25 21 22 23 22 19 19 24 32 40 46 49 49 47 46 55 60 43 20 15 24 39 44 37 34 34 32 35 45 55 57 50 42 33 27 28 30 24 17 14 16 19 22 25 26 25 24 25 25 26 27 30 32 34 37 38 37 35 32 30 30 31 32 33 33 34 34 34 34 34 35 36 38 39
28 27 27 26 24 22 22 23 24 23 22 20 18 16 15 16 17 17 18 19 23 32 38 39 42 48 58 67 59 33 12 17 38 44 32 27 31 31 31 34 43 54 62 60 51 37 31 33 31 22 16 15 17 19 22 24 25 26 26 25 25 26 29 31 31 34 38 39 37 36 36 37 35 34 35 34 34 35 35 34 34 34 36 37 37
31 29 28 27 27 27 25 23 21 19 18 17 17 16 14 14 17 17 18 18 16 19 24 28 37 49 54 61 65 44 15 15 37 41 28 24 27 28 31 33 36 48 61 68 63 52 41 37 35 29 21 17 16 16 18 21 24 26 26 26 26 26 28 30 30 32 36 38 40 40 40 41 38 35 35 36 35 35 35 34 34 33 33 34 34
31 31 31 31 30 29 28 28 27 24 23 23 22 22 20 19 21 22 21 20 18 15 15 18 29 41 41 43 55 49 23 18 35 40 30 25 25 25 27 31 36 44 55 65 69 65 55 45 38 33 27 24 24 23 20 18 19 22 25 27 27 27 28 30 31 33 36 40 44 42 38 40 39 36 35 36 35 36 36 35 34 33 32 31 33
28 29 31 33 34 34 33 32 31 30 29 28 27 27 27 27 29 30 29 28 23 18 15 14 19 28 28 25 34 42 36 29 34 37 33 28 27 25 25 28 36 43 50 58 65 69 68 59 47 38 30 27 28 30 30 27 23 20 20 24 27 27 28 30 31 33 36 41 46 44 38 38 39 37 36 35 36 36 37 37 36 35 33 32 32
28 29 30 30 31 34 36 36 35 34 32 32 32 30 29 31 33 35 36 35 30 24 20 17 16 21 27 27 24 28 35 41 40 33 30 32 32 30 29 28 34 44 51 54 56 60 67 68 59 47 36 29 27 28 31 35 35 28 21 20 24 26 27 28 29 30 33 38 45 46 40 36 37 37 35 35 36 36 36 37 37 37 35 34 32
36 36 35 36 35 34 35 35 35 36 35 34 35 34 33 32 32 36 38 37 35 32 26 24 24 22 28 40 43 34 28 36 48 41 29 30 35 35 35 33 33 39 47 50 52 56 65 72 72 64 53 45 38 32 32 37 44 43 35 26 22 23 26 27 27 28 31 35 41 45 41 36 36 37 36 35 36 37 36 35 35 36 36 36 34
51 49 46 45 42 38 37 36 35 36 37 36 35 36 38 37 34 34 37 36 37 36 32 35 40 37 37 44 50 48 37 35 51 57 39 27 30 35 38 36 30 30 34 38 46 56 66 72 74 72 70 68 62 55 52 54 54 55 56 51 40 30 27 27 26 27 29 31 35 41 42 39 36 36 37 37 36 35 36 36 36 36 37 37 37
59 57 54 50 45 40 36 34 34 34 36 38 38 35 37 42 41 36 34 34 36 37 35 39 46 55 64 60 49 53 55 43 45 56 50 34 28 32 40 41 35 29 28 30 36 46 56 63 64 63 65 69 72 71 69 68 65 62 67 72 63 49 42 40 35 31 31 31 31 34 39 42 40 37 37 38 37 36 36 36 37 38 37 37 37
63 62 61 59 56 51 45 41 38 37 37 40 43 40 38 42 46 44 37 33 34 37 37 37 41 50 63 66 58 60 67 60 50 52 55 47 34 30 37 43 41 34 30 31 33 35 40 50 59 63 63 64 67 69 67 68 69 68 68 72 71 66 67 67 56 42 35 33 32 32 33 37 41 41 40 39 37 36 36 37 37 38 38 37 36
64 64 64 64 64 64 61 58 53 49 46 44 46 48 44 43 46 48 44 37 32 34 37 39 46 51 55 65 71 67 64 68 66 59 59 61 51 38 35 38 39 36 34 36 38 37 36 38 44 53 61 65 67 67 65 68 73 73 70 69 69 73 80 82 73 56 40 32 32 35 34 34 36 39 40 40 38 36 36 36 37 38 39 37 35
Wind_Speed
25 24 24 23 22 22 21 21 20 20 19 18 17 16 15 12 11 11 10 7 5 7 7 8 9 8 7 7 9 10 11 13 14 14 11 10 12 14 16 14 11 11 10 8 6 6 5 5 6 6 6 6 7 8 8 8 8 8 8 8 9 10 12 14 15 16 16 16 16 16 16 17 18 18 18 18 18 17 17 16 15 15 15 15 15
26 25 24 23 22 22 21 21 20 20 19 18 18 17 15 13 12 11 9 8 6 9 8 7 7 7 7 6 8 9 10 12 13 13 11 10 12 13 14 14 11 11 11 9 7 6 5 5 5 5 6 6 6 7 7 8 8 8 8 9 9 10 13 15 15 15 16 16 16 16 16 16 17 18 17 17 17 17 16 15 14 14 15 15 14
27 26 25 24 23 22 21 21 21 20 20 19 18 17 14 13 12 11 9 9 7 8 7 6 6 6 6 6 7 8 9 11 12 12 11 10 11 11 13 13 11 10 11 9 7 6 4 4 4 5 5 6 6 6 7 7 8 8 8 9 10 11 13 15 15 15 15 15 15 15 15 15 16 16 16 16 16 16 16 15 14 13 14 14 13
28 27 26 25 23 22 21 21 20 21 20 19 18 16 14 14 13 11 10 9 7 7 6 5 5 5 5 6 7 7 8 9 11 11 10 10 10 10 11 12 11 10 10 9 8 6 4 3 3 4 5 5 5 6 7 7 8 8 8 9 11 13 14 14 13 14 14 14 14 14 14 14 14 14 15 14 14 15 15 14 13 12 12 13 12
27 27 27 26 24 23 21 20 20 21 21 19 18 17 15 15 13 12 11 9 7 6 5 4 4 4 6 6 5 5 6 8 9 10 10 10 10 9 9 11 11 11 10 8 7 6 4 2 2 3 5 5 4 5 6 7 7 8 9 10 11 13 14 12 12 12 13 13 13 12 13 13 12 12 13 13 12 13 13 13 12 12 11 11 10
25 26 26 26 25 24 22 21 21 20 21 20 19 18 17 16 14 14 13 11 8 6 6 5 4 4 5 4 4 4 5 6 7 8 10 10 9 9 8 9 9 11 11 9 7 6 4 3 1 2 4 4 4 5 6 6 7 8 9 10 11 13 12 11 10 11 12 12 12 12 12 11 11 10 11 11 10 10 11 11 11 11 10 9 9
24 26 26 26 25 24 23 22 21 20 20 20 19 18 19 17 15 15 15 12 9 7 7 6 4 3 3 4 4 4 3 5 6 7 9 9 9 9 8 8 8 9 10 10 7 6 5 4 2 0 3 4 4 4 5 5 7 8 9 10 11 11 10 9 9 10 10 11 11 11 10 10 9 9 9 9 9 9 9 10 10 9 8 8 7
24 25 26 26 26 24 22 22 21 21 20 20 20 19 20 19 17 17 15 13 11 9 9 7 5 3 2 5 4 3 3 4 5 6 7 8 9 9 8 8 8 8 9 9 8 7 6 5 4 2 2 3 3 4 5 5 6 7 8 9 10 9 8 7 7 8 9 9 9 9 9 9 8 8 8 8 7 7 8 8 8 7 7 7 6
24 25 26 26 26 26 24 23 22 21 20 20 21 20 20 19 17 17 14 14 14 11 11 10 6 3 2 5 5 2 2 2 3 5 6 7 9 9 9 8 8 8 8 8 8 7 7 6 5 2 2 3 3 3 4 5 5 6 7 8 8 8 7 6 6 6 7 8 8 7 7 7 7 7 6 6 6 6 7 7 7 6 6 5 5
24 26 26 25 25 26 24 23 22 22 21 21 21 21 21 20 18 17 14 14 16 14 13 12 9 5 3 2 4 2 1 1 2 4 5 5 7 8 8 8 7 7 7 7 7 7 6 6 6 4 1 3 3 3 4 4 5 5 6 7 7 7 7 6 5 5 6 6 6 6 6 6 6 6 6 6 5 6 6 6 6 6 5 4 4
25 26 26 25 24 24 23 23 22 22 22 22 22 22 22 20 19 18 17 15 16 16 15 14 11 8 6 4 2 2 1 2 2 4 4 4 6 7 7 7 7 6 7 7 7 8 7 6 5 4 2 1 3 4 4 4 4 5 6 6 6 6 6 6 5 5 5 5 5 5 5 5 5 5 5 5 5 5 6 5 5 5 5 4 3
24 24 24 25 24 23 22 21 21 21 23 23 23 23 23 21 19 20 19 17 16 17 18 17 13 10 9 8 5 3 3 3 2 3 4 3 5 7 7 7 6 6 6 6 7 8 7 6 6 4 3 1 2 4 4 4 4 4 5 6 5 6 6 6 5 5 5 5 5 5 4 4 4 4 4 4 4 5 5 5 5 5 4 3 3
23 23 23 23 24 23 22 21 20 20 22 23 23 23 23 22 21 22 21 20 18 19 19 18 16 13 12 10 7 5 5 5 3 2 4 4 5 6 6 6 6 5 5 5 6 7 6 6 7 5 3 1 1 3 4 4 4 4 5 5 5 5 6 6 6 5 5 5 5 4 4 4 3 4 4 4 4 4 4 4 4 4 4 3 2
25 24 23 23 23 23 21 21 20 20 21 23 23 24 24 23 23 23 22 21 20 20 21 20 18 16 13 11 9 8 7 7 4 3 4 5 6 5 5 5 5 5 4 4 5 6 6 6 7 5 3 2 1 2 3 4 5 5 5 5 5 5 6 6 6 5 5 5 4 4 4 3 3 4 4 4 4 4 4 4 4 4 3 3 2
28 26 24 22 22 21 20 20 21 23 23 23 23 24 25 25 24 24 22 22 22 22 22 22 20 17 15 13 11 10 9 7 4 4 4 5 5 4 5 5 5 5 4 3 4 4 5 5 6 5 4 2 1 2 3 4 5 5 5 5 5 5 5 5 5 5 4 4 4 4 4 4 3 4 4 4 4 5 5 5 4 4 3 2 2
27 28 26 23 22 20 18 18 20 23 26 26 25 24 26 26 26 25 23 23 23 23 23 22 20 18 17 15 13 12 8 5 5 4 4 4 3 3 5 5 5 6 4 3 3 3 3 4 4 5 4 2 2 3 4 4 5 6 6 6 6 6 6 5 5 4 4 4 5 4 4 4 4 4 4 5 5 5 5 5 4 3 2 2 1
26 28 28 26 24 21 18 17 18 21 25 27 27 27 27 28 28 27 25 24 24 24 24 23 21 20 19 17 16 13 8 7 7 5 4 3 2 3 5 6 6 6 6 4 3 3 3 2 3 4 4 3 1 4 5 5 6 6 6 6 6 6 6 5 5 4 4 5 5 5 5 5 5 4 5 5 5 5 5 4 4 3 2 1 1
27 27 28 27 26 23 20 19 20 20 21 23 25 27 28 29 30 29 28 27 25 25 25 25 23 21 20 19 17 15 13 11 10 7 4 3 2 3 6 7 6 6 6 6 5 4 3 2 2 2 3 3 2 2 5 7 7 7 7 7 7 7 7 6 5 5 5 5 5 6 6 6 6 5 5 5 5 5 4 4 3 2 1 0 1
29 28 28 26 27 26 24 24 24 22 21 20 22 25 28 29 30 30 30 29 28 27 26 26 26 23 21 20 18 17 16 14 12 9 6 4 5 4 5 7 6 6 7 8 7 4 3 2 1 1 2 3 2 1 3 6 8 8 8 8 7 7 7 7 6 6 5 5 5 5 5 6 6 6 6 5 5 5 5 4 3 2 1 1 2
32 30 29 27 27 28 29 30 29 27 25 22 21 23 27 29 30 31 31 31 31 29 27 27 28 26 24 23 21 20 17 16 15 13 10 8 7 5 5 6 6 6 7 9 9 6 4 3 1 1 2 3 3 2 1 4 7 9 9 9 8 7 7 7 7 7 6 5 5 5 5 5 6 6 6 6 5 5 4 4 3 2 3 3 3
33 32 30 29 28 29 31 32 32 31 29 25 22 22 25 28 31 32 32 33 32 31 29 29 29 27 26 25 23 21 19 19 19 17 14 12 9 8 7 6 6 7 7 8 9 8 5 4 2 2 2 3 4 3 2 2 4 7 9 10 9 8 8 8 8 8 7 6 6 6 6 6 6 6 6 6 6 5 5 4 4 4 4 5 5
30 29 29 29 29 30 31 32 32 32 29 26 23 22 23 26 30 32 32 32 32 31 30 30 30 28 28 27 25 23 21 20 21 20 18 16 13 11 9 7 7 8 8 8 8 8 7 5 3 3 3 3 4 4 4 3 4 5 7 9 9 8 8 8 8 8 7 7 7 7 7 7 6 6 6 6 6 6 5 5 5 6 6 7 7
29 28 28 29 29 30 31 32 32 30 28 25 24 24 24 24 27 30 32 32 31 31 31 31 31 30 30 29 28 25 24 23 21 21 21 20 17 15 13 11 10 9 8 7 7 7 7 6 4 3 3 4 4 5 5 4 4 5 4 6 8 8 8 8 8 8 7 8 8 8 7 7 7 7 6 6 6 6 7 7 7 7 8 8 9
30 30 30 30 30 30 31 31 29 27 25 25 26 27 26 24 24 28 30 30 30 31 31 31 32 32 31 31 29 27 26 25 23 22 22 21 21 19 16 15 13 10 9 9 7 6 7 7 6 4 3 4 5 6 7 6 5 5 4 4 6 8 8 7 7 7 7 7 7 7 7 7 6 6 6 6 7 7 7 8 8 8 9 9 9
30 29 28 27 27 27 28 29 28 25 25 26 27 28 28 25 24 26 28 29 29 30 30 30 32 33 32 32 31 29 27 26 25 24 22 22 22 21 19 17 14 12 11 10 9 8 7 8 8 6 4 4 6 7 7 7 6 6 5 4 5 7 7 7 7 6 6 6 7 7 7 7 6 6 6 7 7 8 8 8 9 8 8 8 9
27 28 28 28 27 25 25 27 28 27 26 27 28 28 29 28 26 27 28 28 29 30 29 29 30 32 32 32 31 30 28 26 26 26 24 23 23 22 20 18 16 15 13 11 11 9 8 8 9 9 6 4 6 8 8 8 8 7 7 6 5 5 6 6 6 6 6 6 6 6 6 6 6 6 6 7 7 7 7 8 7 7 7 7 8
25 25 27 29 29 27 25 25 26 26 26 26 27 28 30 30 28 28 29 29 30 31 30 29 30 31 32 32 32 31 28 26 26 28 26 25 25 23 22 20 19 17 14 13 13 9 8 9 9 9 7 5 6 9 9 9 9 8 8 7 6 6 6 6 6 6 6 6 5 5 5 5 5 5 5 5 6 6 5 6 6 6 6 6 7
27 25 26 28 29 29 26 25 24 25 25 26 28 29 31 32 30 30 30 30 31 32 31 30 30 31 32 33 32 31 29 26 26 28 28 27 27 26 24 23 22 21 18 16 14 10 9 10 9 9 8 5 6 9 10 10 10 9 9 8 8 7 7 7 7 7 7 6 6 6 6 6 5 5 5 5 5 5 5 5 5 6 6 6 7
28 26 26 28 30 30 28 26 26 27 27 28 30 30 30 30 30 30 29 28 30 31 31 31 31 31 32 34 33 31 28 27 26 28 29 29 30 29 27 26 25 25 22 19 16 12 11 11 9 8 9 7 7 9 11 11 11 10 10 10 9 9 8 8 8 7 7 7 6 6 6 6 6 5 5 5 5 5 5 5 6 6 6 6 7
28 28 27 28 30 32 32 30 28 29 30 32 32 31 30 29 29 29 27 26 28 29 30 32 32 32 33 35 35 32 29 28 27 28 29 31 32 32 31 29 28 28 25 22 19 15 14 13 9 8 10 9 8 10 11 12 12 12 11 11 11 10 9 9 8 8 7 7 7 6 6 6 6 6 6 6 6 6 6 6 7 7 7 7 8
33 32 31 29 30 32 33 33 31 31 32 33 33 32 31 29 28 28 27 26 26 26 27 29 32 33 34 36 37 34 30 29 28 28 29 31 33 33 33 32 31 30 27 25 23 18 16 14 11 10 11 11 10 11 12 13 13 13 13 13 12 12 11 10 9 9 8 8 7 7 7 6 7 7 7 7 7 7 7 7 7 8 8 9 9
39 39 37 34 32 32 33 33 32 32 32 32 32 31 30 29 29 29 27 26 26 25 25 26 29 32 34 36 38 37 33 31 30 29 30 31 33 33 33 33 32 31 29 29 26 21 18 17 14 13 13 12 12 12 13 15 15 15 15 15 15 14 12 11 11 10 10 9 9 8 8 8 8 9 9 9 9 9 9 9 9 10 10 10 11
43 44 42 39 36 35 34 33 32 32 32 31 31 30 28 28 30 31 30 29 28 28 27 26 26 29 31 34 37 38 36 34 33 32 31 32 33 34 34 34 34 32 31 30 28 23 20 20 18 16 15 15 14 13 14 15 16 16 17 17 18 17 15 14 14 13 12 12 11 11 11 11 11 11 11 11 11 11 12 12 12 12 12 13 12
47 47 47 44 41 39 37 36 34 34 34 33 33 32 29 28 30 33 34 33 32 32 31 29 26 26 29 32 35 37 37 36 35 34 34 33 34 34 35 35 34 33 31 31 30 27 24 22 21 19 18 18 15 14 15 15 17 18 19 18 19 19 18 18 17 16 15 15 14 14 14 14 14 14 14 14 14 14 14 15 16 16 15 15 15
47 49 49 48 46 44 41 39 37 37 37 38 38 39 37 34 32 33 35 35 35 34 33 33 30 28 27 29 31 33 34 36 36 36 36 36 36 36 36 36 35 33 31 31 31 29 27 25 24 24 22 20 18 16 15 16 19 21 21 20 20 21 21 20 19 19 18 18 17 18 18 18 18 18 17 17 17 17 17 18 18 19 18 18 17
47 47 48 50 50 49 46 44 42 41 41 41 43 46 46 44 40 38 39 40 40 39 37 36 36 33 29 28 27 29 31 34 35 36 38 39 39 39 38 37 36 34 33 32 31 30 29 28 28 27 26 24 21 19 19 19 21 22 22 22 22 22 22 22 22 21 21 20 20 20 20 21 21 20 20 19 20 20 20 20 20 21 21 21 20
49 49 48 49 52 53 51 49 47 47 46 46 46 47 50 51 49 47 46 47 48 46 41 39 40 39 35 32 29 28 30 33 34 35 37 39 41 41 40 39 38 37 35 34 33 32 32 32 31 30 30 28 25 23 22 22 21 22 23 23 23 22 23 23 24 23 23 22 22 22 22 22 22 22 22 22 21 22 22 21 21 21 22 22 22
48 50 51 50 52 54 54 53 51 51 51 50 49 48 49 51 52 51 51 51 52 51 47 43 42 41 39 37 33 30 30 32 33 34 36 38 41 42 42 42 41 39 39 37 36 35 34 34 34 34 33 32 29 27 26 24 22 22 23 24 25 25 24 24 24 23 23 23 23 23 23 23 23 23 23 23 22 21 21 20 19 19 20 21 21
45 48 51 52 53 56 57 56 55 53 53 53 52 51 50 50 51 51 51 51 50 49 48 46 44 43 41 40 39 35 33 33 33 33 34 37 40 42 43 43 42 43 42 41 39 38 37 36 36 37 37 35 34 32 29 27 25 25 25 26 27 26 25 24 23 22 23 23 24 24 24 24 23 23 23 22 20 19 18 18 17 17 17 18 19
41 44 48 51 53 56 59 60 59 57 56 54 53 54 54 53 51 51 50 49 47 44 43 44 46 46 44 42 42 40 36 35 34 33 34 35 38 42 43 42 43 44 45 44 43 41 40 39 38 38 39 39 38 36 33 31 29 28 28 27 26 24 23 23 23 23 23 24 24 25 25 25 24 23 22 20 19 17 16 16 15 15 15 16 17
37 40 44 48 52 56 60 62 62 61 60 59 56 55 56 55 53 52 51 49 48 45 42 43 46 49 47 42 42 41 39 37 35 34 34 35 37 40 42 42 42 43 45 46 46 45 43 42 40 39 40 41 41 39 37 35 32 30 28 26 24 24 24 24 25 24 24 24 25 25 26 26 26 24 22 20 18 16 15 15 14 14 15 16 17
34 37 40 44 48 52 57 61 63 64 63 62 60 58 59 58 56 55 54 52 50 48 46 44 45 47 47 44 41 41 41 39 36 34 35 36 37 39 40 41 41 41 43 44 46 47 46 45 43 41 41 43 42 41 39 36 34 32 31 28 27 26 26 26 27 26 25 25 26 26 26 27 27 25 23 21 19 17 16 15 15 15 16 17 19
34 36 38 41 44 47 51 55 59 62 63 62 62 60 60 60 58 57 56 55 53 51 49 48 46 44 45 45 43 41 41 41 38 35 35 36 37 38 40 40 40 40 40 41 44 46 47 47 45 43 43 42 41 41 40 38 37 36 34 31 30 29 28 28 29 29 27 26 26 26 26 27 28 27 24 22 20 19 18 16 16 16 18 19 20
33 36 38 40 42 44 47 50 53 56 58 59 60 60 61 60 59 58 57 56 55 53 51 51 49 46 44 44 44 42 42 42 40 37 36 37 37 37 38 39 40 39 38 40 41 43 44 45 46 46 45 42 40 39 39 39 40 38 37 36 33 32 31 30 30 30 29 27 28 29 28 27 28 29 26 23 23 22 20 19 19 19 19 20 21
29 32 35 38 41 43 45 47 49 52 54 55 56 57 59 60 59 58 57 57 56 55 53 52 52 51 48 47 46 43 43 44 42 39 37 37 36 36 37 38 39 39 39 39 40 41 42 43 44 46 46 43 42 39 37 37 39 40 41 40 37 35 34 31 30 31 30 29 29 31 32 30 30 31 28 25 25 25 23 22 21 20 20 21 22
25 27 29 33 36 39 42 44 46 48 51 53 54 55 56 58 58 57 58 58 58 58 57 55 54 54 52 50 49 46 43 43 43 41 38 36 35 34 35 37 38 39 39 40 41 42 42 42 43 44 44 44 43 41 39 37 38 39 41 42 40 39 37 35 33 32 33 32 31 33 35 34 33 33 30 28 28 28 25 23 23 23 23 23 24
22 24 25 28 31 34 37 40 43 45 47 49 52 54 56 56 56 57 58 59 59 59 59 58 57 57 54 51 51 49 45 43 43 42 39 36 33 33 34 36 37 38 39 40 41 42 42 43 43 43 41 40 40 41 40 40 39 38 38 39 40 41 41 40 38 37 36 35 35 37 38 36 35 36 33 31 31 30 26 25 24 25 25 25 25
17 19 22 24 27 29 33 36 39 41 43 44 47 51 54 56 57 57 57 58 59 60 60 59 58 58 56 54 54 52 48 43 41 41 41 38 35 34 34 35 35 36 38 38 39 40 41 44 45 43 40 38 37 37 38 40 40 38 38 39 39 41 43 44 42 40 38 37 37 39 39 38 39 39 36 33 33 31 29 28 27 27 27 27 27
15 16 18 20 22 24 27 30 34 37 39 40 42 45 49 53 56 57 57 57 58 59 61 61 60 57 55 55 56 54 50 46 42 41 42 42 40 37 36 35 35 36 37 37 37 38 40 43 44 43 42 42 41 39 38 40 41 41 43 44 41 41 44 45 45 43 41 40 39 39 40 41 41 41 39 37 36 34 33 32 31 30 30 29 30
14 15 17 18 19 20 21 23 26 30 33 35 37 41 44 48 52 55 56 56 56 57 59 60 61 59 56 55 54 52 51 49 46 43 43 44 44 42 39 38 37 38 36 35 36 37 39 41 42 43 43 44 46 46 44 44 44 46 50 48 43 43 45 46 45 45 46 48 45 42 44 44 43 44 43 41 40 38 37 36 35 34 33 32 32
12 14 16 17 17 19 20 20 22 24 27 29 31 35 39 43 48 52 54 55 55 55 56 58 60 62 60 56 53 52 51 51 51 48 44 43 46 46 43 41 41 40 36 34 35 37 38 40 42 43 44 44 46 48 48 47 47 51 54 51 45 46 48 47 46 47 50 52 50 48 50 47 43 45 47 46 45 42 40 39 38 36 36 35 35
Wind_Direction
184 184 181 179 176 174 174 176 178 180 181 181 180 178 173 165 172 174 173 189 152 114 106 100 97 85 70 52 43 40 33 27 22 22 25 26 27 28 24 24 31 38 48 59 71 91 100 109 114 111 106 103 103 103 104 105 107 107 108 110 112 114 113 113 112 111 111 112 113 113 113 112 111 111 111 110 109 107 105 103 102 100 100 98 100
187 187 185 181 178 176 176 178 179 180 184 185 184 182 175 170 183 186 184 205 174 125 116 106 98 87 79 61 46 43 35 27 21 23 30 29 27 27 25 26 33 39 48 58 65 77 92 105 109 108 105 103 101 100 102 105 109 110 110 112 114 118 118 117 116 115 115 115 116 116 116 115 114 113 112 112 110 109 107 106 105 105 105 104 104
190 190 189 185 180 179 179 180 179 179 184 187 189 185 174 175 191 195 194 210 184 135 123 114 98 92 86 62 46 41 35 28 22 25 32 30 26 26 26 28 35 42 48 55 60 63 75 94 103 103 101 101 101 102 104 106 110 112 113 114 118 122 121 119 119 118 118 118 119 119 118 117 116 115 114 113 112 110 109 109 107 107 107 107 107
192 192 192 188 182 181 181 182 181 180 184 188 191 185 174 182 197 199 195 207 193 146 127 127 114 109 93 60 45 37 33 30 24 24 28 26 24 26 28 31 34 40 45 49 54 54 55 75 97 101 97 96 101 108 110 113 115 116 117 117 122 126 126 123 122 122 121 120 120 120 119 118 116 115 114 114 114 113 113 112 110 108 107 108 108
194 195 194 190 186 185 184 184 184 182 185 189 191 186 178 187 200 201 192 199 204 165 147 163 145 118 96 70 52 42 33 30 27 21 20 20 26 30 28 31 35 37 38 40 44 45 41 45 83 102 99 98 107 115 116 121 123 121 121 122 126 130 129 126 125 125 125 124 123 121 120 118 116 115 114 114 115 116 116 115 114 113 112 112 114
198 199 197 194 190 188 186 187 188 187 187 190 193 187 182 189 203 206 193 193 207 186 177 192 161 123 109 96 72 62 41 25 26 21 17 20 27 31 29 29 33 34 35 36 39 39 34 19 11 103 109 110 117 121 122 127 130 127 125 126 130 133 132 130 129 130 129 128 126 125 123 122 121 118 117 117 118 119 118 116 113 112 112 112 113
200 201 201 198 194 192 191 190 191 192 191 191 194 191 186 190 200 206 197 188 202 203 202 208 174 147 127 119 91 73 57 24 24 21 17 22 26 28 30 30 30 31 31 33 37 37 29 15 346 304 130 125 125 123 125 134 137 135 130 130 133 135 135 133 133 135 135 134 131 132 130 129 129 127 125 124 123 123 119 115 111 108 108 107 110
206 204 202 199 196 195 195 196 196 196 195 194 196 194 192 193 196 204 199 183 191 211 224 227 196 169 110 115 107 73 64 29 23 22 16 21 27 27 31 31 28 28 29 30 35 39 31 19 357 297 180 146 139 130 129 141 146 144 139 137 138 138 137 137 140 142 143 141 139 140 140 138 139 137 136 133 130 128 121 116 113 110 110 111 114
213 210 206 201 198 196 195 199 203 201 199 197 198 197 198 198 195 201 200 181 182 202 228 238 224 200 117 110 111 83 58 22 14 21 16 20 26 28 31 30 27 24 25 26 27 37 38 28 16 337 219 176 164 148 137 141 151 154 151 149 145 143 142 141 145 151 152 151 149 149 150 149 148 148 146 139 136 131 121 116 116 117 117 117 120
211 213 211 205 202 200 196 197 203 206 203 201 201 199 201 202 195 196 198 187 182 194 221 237 240 240 230 133 118 114 12 340 3 13 13 19 23 27 29 28 28 24 21 21 18 21 31 32 24 10 287 199 191 180 157 142 151 162 159 157 154 148 147 148 152 161 162 159 159 160 163 162 159 160 155 148 145 134 123 120 122 125 128 131 133
204 209 212 210 206 204 200 198 200 207 207 205 205 203 203 202 196 195 194 190 187 191 213 230 237 248 260 260 218 175 256 292 331 356 358 10 18 22 25 22 26 27 18 17 16 11 16 27 24 14 10 220 210 204 184 154 151 164 159 154 156 153 152 156 160 168 170 167 169 173 178 177 171 171 166 163 156 137 128 129 130 134 139 148 146
200 204 209 213 212 207 204 202 200 206 209 208 208 207 204 202 199 200 195 191 189 190 207 225 228 239 256 260 254 233 240 255 274 335 344 352 6 11 14 14 20 28 21 14 14 8 5 17 22 11 5 10 221 219 205 178 160 163 159 148 151 156 155 158 161 168 176 176 180 185 191 189 182 183 180 177 163 143 139 140 139 142 148 157 144
201 204 207 211 214 210 206 207 204 206 211 210 210 209 205 202 200 201 199 193 191 192 205 223 227 229 241 251 254 248 245 246 256 308 329 334 343 353 0 4 10 25 26 10 8 8 2 6 18 15 357 3 219 222 211 195 178 168 162 151 150 156 157 159 160 169 180 184 189 194 201 199 193 197 195 186 171 156 154 150 150 151 154 155 129
204 205 207 207 211 211 208 210 208 207 212 211 211 211 208 206 203 201 201 197 197 198 203 218 228 232 238 248 251 249 251 253 266 295 310 325 330 336 347 353 357 13 25 12 3 9 5 356 4 17 2 341 260 221 212 202 190 180 167 158 155 157 157 158 159 169 181 188 198 204 211 212 207 207 203 195 182 172 165 160 163 162 155 144 110
206 206 205 202 205 209 209 212 211 207 211 212 213 213 211 211 208 205 203 201 203 207 207 214 225 230 233 239 246 244 249 258 266 285 301 324 334 333 343 350 348 356 12 10 359 2 5 354 354 12 14 339 271 226 217 205 194 187 177 167 165 163 161 158 157 169 185 198 210 217 223 226 223 213 205 201 189 180 173 170 174 167 155 136 104
205 207 208 206 203 204 205 213 218 213 212 215 217 216 213 213 213 209 206 204 207 214 216 218 222 226 227 233 242 242 247 267 271 280 302 316 331 342 352 358 349 348 358 357 346 344 358 4 357 6 15 352 255 224 217 211 201 194 186 177 174 173 173 173 173 181 197 214 222 225 230 232 227 214 208 204 194 186 181 180 181 170 158 136 102
205 208 211 212 209 205 204 212 223 222 218 219 220 219 215 215 216 214 211 208 209 216 221 223 225 226 226 229 236 242 253 269 266 267 285 292 304 351 357 357 348 348 355 355 339 321 336 7 0 1 15 14 274 222 215 218 213 204 196 189 185 187 192 196 197 199 207 223 231 229 228 229 223 210 206 204 194 190 188 188 187 174 164 137 71
204 208 210 211 210 208 208 215 225 227 224 224 225 223 220 218 219 218 216 212 210 215 221 225 227 226 228 230 234 241 247 251 256 259 255 255 253 303 342 349 352 354 355 356 343 311 308 333 351 351 4 13 350 227 212 217 222 215 204 201 201 201 205 207 206 209 215 226 236 232 220 216 214 206 203 200 193 190 190 195 198 186 187 205 338
207 208 209 210 209 209 209 215 226 229 227 228 228 227 225 222 220 220 220 216 211 213 218 224 228 227 228 232 237 241 244 248 257 259 248 232 232 260 321 339 348 356 351 350 345 322 301 304 330 323 325 343 343 289 209 210 218 220 213 212 214 214 215 213 209 211 217 225 233 228 211 202 203 200 198 195 192 191 192 197 205 217 255 286 295
210 209 210 210 209 209 209 214 224 229 227 227 229 229 227 223 221 221 223 220 214 212 213 221 228 230 230 232 237 242 246 251 255 255 247 236 233 254 303 320 328 338 339 341 341 332 307 287 268 263 292 307 311 305 252 214 214 220 221 219 222 224 223 220 217 214 212 214 218 214 204 197 196 196 194 190 191 196 200 207 219 236 264 285 289
213 214 213 212 213 214 215 217 223 227 225 225 230 234 232 227 223 222 224 222 217 214 213 218 226 232 236 238 240 243 245 247 248 248 246 241 243 257 283 300 309 317 323 330 334 330 315 290 261 232 253 284 292 290 287 263 231 224 224 225 227 229 228 223 223 219 209 201 200 200 199 195 196 196 192 191 195 203 212 224 241 254 269 285 290
213 215 213 212 215 219 222 225 228 230 227 225 231 237 238 235 230 226 226 224 220 217 216 219 225 230 236 241 243 243 243 243 243 246 248 248 251 259 272 284 289 299 310 319 327 328 319 300 269 229 231 256 274 282 284 278 263 244 230 230 232 231 227 223 222 219 209 198 194 196 199 197 199 200 196 198 204 214 227 240 253 266 277 286 290
210 211 211 210 212 217 221 225 229 232 231 230 233 235 236 237 237 233 230 227 222 219 217 219 224 228 232 237 241 243 244 244 242 245 249 252 256 261 267 271 273 283 296 304 318 325 319 309 290 243 226 237 250 269 279 274 265 259 238 230 233 233 227 219 216 214 207 202 197 197 200 203 204 206 208 212 219 228 240 252 262 273 280 285 287
208 209 210 212 213 216 219 223 227 231 235 237 236 235 232 232 236 236 234 233 229 224 220 219 222 227 230 233 238 241 243 245 244 243 246 251 256 257 258 260 262 269 279 288 299 310 313 310 303 281 234 235 242 254 269 272 263 260 249 225 224 227 224 216 211 208 205 204 204 201 203 209 212 216 223 231 240 248 256 265 271 277 282 284 284
206 204 202 205 209 213 218 221 225 230 237 240 238 235 232 228 231 233 234 237 237 234 230 225 224 228 231 232 236 239 241 244 246 244 243 247 250 251 253 255 256 259 267 275 281 292 305 306 303 297 262 238 238 241 257 267 264 259 257 238 220 218 216 212 206 205 205 205 208 209 209 216 221 228 239 247 255 262 269 275 279 282 285 284 284
203 200 199 201 204 207 213 217 220 225 232 237 237 235 231 228 229 230 231 234 236 237 236 234 231 231 233 234 235 238 240 241 244 244 242 243 246 249 252 252 252 254 257 264 270 279 293 295 298 297 281 248 236 233 243 258 262 259 256 248 234 216 206 204 201 201 203 204 213 220 221 226 231 236 244 252 259 265 271 276 280 285 286 283 284
203 204 204 206 206 206 208 211 215 218 224 233 238 237 233 231 231 231 232 235 235 234 235 237 238 237 237 237 235 236 238 238 239 243 243 244 246 249 251 253 254 254 253 258 262 265 273 282 292 292 281 259 240 232 231 244 253 254 251 248 240 223 208 205 205 205 206 207 214 225 233 237 238 239 240 245 254 260 265 269 273 276 279 279 280
205 210 213 212 212 211 208 206 208 211 217 227 235 236 234 233 233 233 235 237 237 236 236 237 238 239 240 240 237 236 237 236 234 238 243 245 248 250 251 252 255 257 255 254 253 249 254 267 280 284 277 263 245 235 229 235 245 247 246 244 239 229 219 216 216 215 212 211 211 216 228 234 236 237 235 234 240 247 254 257 260 263 268 271 274
207 213 217 217 216 216 213 209 207 211 217 223 228 230 231 232 233 233 233 234 235 237 239 239 237 238 239 241 240 236 236 235 233 235 240 244 249 251 251 251 253 255 254 251 248 241 243 252 262 271 271 264 249 239 233 233 239 242 242 240 238 235 231 227 226 223 217 215 214 212 216 223 230 233 234 234 235 240 246 251 256 259 263 268 271
214 219 223 221 218 218 219 217 214 215 220 223 224 223 226 229 231 232 233 233 233 235 239 240 237 237 238 240 240 237 234 233 232 234 238 242 246 250 252 252 251 251 250 249 246 237 237 247 252 256 260 259 248 238 234 234 237 240 241 240 238 236 234 230 229 228 222 219 218 219 218 222 230 235 239 242 242 245 249 254 260 263 267 270 273
222 227 230 229 225 222 222 223 222 221 222 224 224 223 225 229 230 231 231 232 233 237 243 242 237 236 238 240 239 235 232 232 233 234 236 239 243 248 250 251 250 249 248 247 245 237 236 244 245 244 250 252 247 239 234 234 236 238 240 242 240 235 230 226 227 227 226 224 223 226 231 235 240 245 250 253 255 256 258 260 262 265 268 270 273
227 231 233 233 232 229 225 225 226 225 224 224 224 225 227 230 230 228 226 228 232 237 246 247 240 237 237 239 239 235 232 233 234 235 236 238 241 245 248 249 249 249 247 246 244 237 236 241 241 241 245 247 245 242 237 236 236 237 239 242 243 237 231 228 229 229 230 233 235 236 241 245 250 255 260 263 267 269 270 269 267 266 268 269 272
230 232 234 234 235 234 230 227 226 226 225 224 223 224 227 231 233 228 223 223 228 234 242 248 247 244 241 240 240 237 235 236 235 235 236 237 239 243 246 248 248 248 247 246 245 240 236 238 240 240 242 244 242 241 242 241 241 240 239 242 243 241 238 236 235 235 236 240 244 247 250 253 256 259 263 268 271 274 275 276 274 272 270 270 271
232 233 235 235 235 235 233 230 228 226 226 226 225 225 229 233 234 230 225 223 226 231 240 246 249 250 249 246 243 240 239 239 238 237 238 238 239 240 244 247 248 247 246 246 247 243 238 237 240 240 241 242 240 237 240 243 244 243 240 241 244 244 243 242 241 242 243 245 248 252 256 259 261 262 265 269 272 274 275 277 278 277 275 274 273
234 234 235 236 237 237 236 234 233 231 229 229 229 231 234 232 228 229 231 232 232 236 245 251 250 248 250 250 247 245 245 244 243 241 240 241 241 240 240 243 246 248 247 246 247 246 242 241 241 241 241 242 240 236 235 236 240 243 242 242 244 245 246 247 247 248 249 251 252 255 258 261 264 266 267 269 272 274 274 275 277 279 279 278 277
236 236 237 237 238 239 238 236 237 237 235 234 234 235 235 232 230 234 240 242 243 244 249 253 252 248 246 249 250 250 250 250 248 246 243 243 244 243 241 240 242 245 247 248 248 248 247 245 243 242 243 242 240 237 233 231 235 241 244 243 244 246 248 248 249 249 251 253 255 257 259 263 265 268 270 271 272 273 273 273 274 275 278 279 279
235 237 238 237 237 238 239 238 238 238 237 237 237 238 238 239 240 243 246 247 247 247 248 247 249 249 248 247 248 249 251 251 249 248 247 245 245 246 245 242 241 242 245 248 249 249 249 247 245 245 245 243 242 239 236 233 233 238 243 245 246 247 248 248 249 251 252 254 257 259 261 263 265 268 270 270 270 270 272 272 272 273 275 277 279
236 237 238 238 237 237 238 239 239 239 239 238 239 239 240 242 243 244 245 246 246 247 247 243 244 248 249 248 247 245 247 249 248 248 247 246 246 246 247 246 244 242 243 246 248 249 249 248 247 247 246 245 243 242 241 238 236 238 241 244 245 245 246 247 249 252 254 256 258 260 261 262 264 266 267 268 269 269 271 273 274 274 275 276 278
237 237 238 239 238 237 238 239 240 241 241 241 242 242 242 242 243 242 242 244 244 244 243 242 242 244 245 247 247 244 244 245 246 247 247 246 245 245 246 247 246 245 245 245 247 248 249 248 248 247 246 246 245 244 244 242 240 238 238 240 242 243 246 248 250 253 255 256 258 259 260 261 261 261 262 264 265 266 268 271 274 276 276 277 278
237 238 238 239 240 239 239 240 242 243 243 243 243 243 243 243 243 243 243 243 243 243 242 244 244 242 241 243 245 244 243 243 244 246 247 247 245 243 244 246 247 247 246 247 247 248 248 248 248 247 246 246 246 245 244 243 242 240 239 242 245 247 249 250 251 252 253 254 255 256 257 258 257 258 258 257 256 257 260 265 269 273 277 279 280
238 237 238 239 240 241 241 242 243 245 246 246 244 243 244 245 244 244 244 244 243 243 244 246 245 240 238 241 243 244 244 243 243 244 245 247 247 244 243 243 246 248 248 248 248 248 249 248 248 247 246 245 244 244 244 245 245 245 245 247 248 248 248 247 246 247 249 252 254 254 255 257 258 258 256 251 248 249 253 259 266 272 277 277 276
241 239 238 238 239 240 241 243 244 246 247 248 247 245 245 246 245 245 245 244 243 241 241 244 244 239 237 240 243 245 245 243 242 242 243 244 245 245 243 241 243 246 248 249 249 249 250 249 248 247 246 245 244 244 245 247 248 248 248 248 247 248 248 246 243 241 244 248 250 252 255 258 258 255 251 246 245 248 251 258 266 271 273 273 274
243 241 239 238 238 238 240 242 243 245 246 247 248 247 246 246 245 244 244 244 243 242 239 241 243 242 242 243 243 244 245 243 240 240 243 243 244 244 244 241 240 242 245 248 248 249 250 250 249 248 247 246 245 245 246 247 248 249 249 249 247 248 248 245 241 239 240 245 248 248 250 253 253 250 244 240 241 246 250 256 262 264 267 270 274
244 242 241 240 239 239 240 241 242 243 244 245 245 246 245 245 244 243 243 243 243 243 240 240 240 240 243 245 244 244 245 242 238 238 242 244 244 245 245 242 239 239 242 245 247 248 249 250 249 249 248 247 247 247 247 248 249 250 251 250 249 248 249 247 242 239 240 243 246 246 244 245 247 246 241 238 240 243 245 248 253 257 263 268 271
243 243 243 243 243 242 242 242 242 242 244 244 244 244 244 243 242 241 241 241 242 243 242 240 240 241 243 245 244 245 245 242 237 237 240 242 243 244 245 244 241 239 239 242 244 246 247 248 247 247 247 247 249 249 249 250 251 251 251 251 250 250 250 249 247 245 244 243 243 242 239 237 241 243 240 238 242 244 244 247 250 254 259 264 267
245 245 245 245 246 246 246 246 245 243 243 243 243 243 244 244 242 240 239 238 239 241 241 240 241 242 243 244 243 243 244 242 239 237 238 240 242 243 244 244 243 241 241 241 242 243 244 246 246 246 246 247 249 250 251 251 252 251 251 251 251 251 251 251 251 250 247 244 241 240 237 233 235 241 240 239 245 248 248 250 253 255 258 263 266
252 251 250 250 250 250 250 249 249 247 245 244 243 242 243 243 243 240 238 237 237 238 240 240 241 242 242 242 242 242 241 241 241 240 238 238 240 243 245 246 246 245 244 243 244 246 247 247 247 246 245 247 249 250 251 251 252 251 251 251 251 251 250 250 249 247 246 245 242 241 240 236 235 239 240 240 244 247 249 251 254 256 258 262 266
261 257 255 255 255 255 254 254 253 252 250 247 244 242 241 241 242 241 239 238 236 236 237 239 240 241 242 242 243 242 240 238 238 240 240 238 239 242 245 247 248 249 249 248 248 250 252 251 250 248 246 246 248 249 250 251 252 251 251 250 248 247 247 247 246 245 246 246 245 245 243 240 238 240 241 240 241 244 246 248 251 256 260 264 267
274 268 262 259 258 257 257 258 259 258 257 253 249 244 241 240 240 240 239 239 237 236 235 236 238 239 240 241 242 243 241 237 235 238 241 242 241 241 243 245 248 250 252 252 251 251 252 254 255 254 249 247 247 246 246 248 249 248 248 248 246 245 247 247 246 245 246 247 247 248 248 244 242 243 243 241 240 241 245 248 252 257 261 264 268
286 278 271 268 266 264 262 262 263 264 263 261 256 249 243 239 238 239 239 239 239 238 236 235 236 239 240 241 241 241 241 239 235 234 238 243 244 243 243 244 247 249 250 253 254 253 252 253 254 254 251 247 247 247 245 246 247 247 247 246 244 246 249 250 250 248 247 246 245 247 250 247 246 248 247 245 244 243 245 250 254 257 260 263 266
300 287 279 276 275 274 272 270 269 268 268 266 261 254 246 240 237 236 238 238 239 239 238 236 236 238 240 240 240 240 241 241 236 231 232 238 242 242 242 243 245 246 247 249 253 255 255 255 254 254 252 249 248 249 248 247 247 249 250 248 245 246 249 251 252 250 249 247 243 244 249 250 250 253 252 250 248 247 247 250 253 257 259 261 261